This demonstration page uses our WeatherBlox Daily Observations layout. Learn more.

41.55636, -103.73856

Hourly Observations for May 3, 2019

Temp ( °F °C ) Dew Point ( °F °C ) Humidity (%) Winds ( mph kmh ) Pressure ( in mb ) Visibility ( mi km ) Precip ( " mm )
12:58 am 00:58 Partly Cloudy 52 11.2 28 -2.2 39 39 E 3 6 29.98 1015 10 16.0934 0 0
1:58 am 01:58 Clear 48 9.1 27 -3 43 43 ESE 5 7 29.99 1016 10 16.0934 0 0
2:58 am 02:58 Partly Cloudy 48 8.7 27 -2.9 44 44 SE 6 9 29.96 1015 10 16.0934 0 0
3:58 am 03:58 Clear 44 6.7 27 -2.8 51 51 SSE 6 9 29.98 1015 10 16.0934 0 0
4:58 am 04:58 Clear 41 4.9 26 -3.2 56 56 S 7 11 29.98 1015 10 16.0934 0 0
5:58 am 05:58 Mostly Cloudy 38 3.1 30 -1 75 75 SSW 10 17 29.98 1015 10 16.0934 0 0
6:58 am 06:58 Mostly Clear 35 1.9 30 -1.2 80 80 SSW 9 15 29.96 1015 10 16.0934 0 0
7:58 am 07:58 Mostly Cloudy 37 2.7 31 -0.6 79 79 SW 10 17 29.96 1015 10 16.0934 0 0
8:59 am 08:59 Mostly Cloudy 40 4.4 30 -1.3 67 67 SW 14 22 29.96 1014 10 16.0934 0 0
9:58 am 09:58 Mostly Cloudy 40 4.4 29 -1.4 66 66 W 13 20 29.95 1014 10 16.0934 0 0
10:58 am 10:58 Clear 39 3.7 27 -2.8 63 63 WNW 12 19 29.95 1014 10 16.0934 0 0
11:58 am 11:58 Mostly Sunny 37 2.8 27 -2.8 67 67 WNW 12 19 29.96 1015 10 16.0934 0 0
12:58 pm 12:58 Sunny 39 4 28 -2.1 65 65 W 12 19 29.98 1015 10 16.0934 0 0
1:58 pm 13:58 Sunny 44 6.8 29 -1.4 56 56 W 10 17 29.99 1016 10 16.0934 0 0
2:58 pm 14:58 Sunny 46 7.8 32 0.2 59 59 N 12 19 30.01 1016 10 16.0934 0 0
3:58 pm 15:58 Sunny 47 8.5 34 0.9 59 59 NNW 13 20 30.02 1017 10 16.0934 0 0
4:58 pm 16:58 Sunny 49 9.7 35 1.4 57 57 N 12 19 30.05 1018 10 16.0934 0 0
5:58 pm 17:58 Mostly Sunny 50 10.1 32 0.2 51 51 NNW 8 13 30.05 1018 10 16.0934 0 0
6:58 pm 18:58 Sunny 52 10.9 32 0.2 48 48 N 8 13 30.04 1017 10 16.0934 0 0
7:58 pm 19:58 Sunny 55 12.7 33 0.4 43 43 NW 9 15 29.99 1016 10 16.0934 0 0
8:58 pm 20:58 Sunny 56 13.6 33 0.6 41 41 NE 6 9 29.94 1014 10 16.0934 0 0
9:58 pm 21:58 Sunny 57 13.9 31 -0.4 38 38 NE 6 9 29.92 1013 8 12.87472 0 0
10:58 pm 22:58 Sunny 58 14.4 33 0.3 38 38 ENE 8 13 29.92 1013 10 16.0934 0 0
11:58 pm 23:58 Sunny 57 14 30 -1 36 36 E 6 9 29.94 1014 10 16.0934 0 0

Powered by AerisWeather